Voltar ao catálogo

PSLV R/B

AtivoSSO
NORAD 28651·ROCKET BODY·🇮🇳 India

Lançado May 5, 2005 de Satish Dhawan Space Centre

Loading…

Próximas Passagens (próximas 24 horas)

TLE

AtualizadoSource: Space-Track

Época: Sep 14, 2026, 07:08 UTC

1 28651U 05017C   26257.29776447  .00000711  00000-0  99103-4 0  9998
2 28651  97.8554 158.7984 0067093  17.4002 342.9487 14.79322760148228

Acompanhe PSLV R/B em tempo real com AllMySat

Download on the App Store